Adelaide, Australia

2:51 AM ACDT on January 24, 2018 (GMT +1030)
Adelaide International

Weather History for YPAD - March, 2013

Change the Weather History Date:

Tuesday, March 19, 2013

  Actual Average Record
Temperature  
Mean Temperature 68 °F -  
Max Temperature 80 °F 74 °F 89 °F (2012)
Min Temperature 56 °F 55 °F 50 °F (2004)
Cooling Degree Days 3    
Growing Degree Days 18 (Base 50)    
Moisture  
Dew Point 44 °F    
Average Humidity 41    
Maximum Humidity 82    
Minimum Humidity 11    
Precipitation  
Precipitation 0.00 in 0.04 in - ()
Sea Level Pressure  
Sea Level Pressure 30.12 in    
Wind  
Wind Speed 9 mph ()    
Max Wind Speed 17 mph    
Max Gust Speed -    
Visibility 15.8 miles    
Events      
Averages and records for this station are not official NWS values.
T = Trace of Precipitation, MM = Missing Value Source: Averaged Metar Reports

Daily Weather History Graph

Daily Weather History Graph

Search for Another Location

Airport or City:

Trip Planner

Search our weather history database for the weather conditions in past years. The results will help you decide how hot, cold, wet, or windy it might be!

Date:

Astronomy

Mar. 19, 2013 Rise Set
Actual Time 7:17 AM ACDT 7:28 PM ACDT
Civil Twilight 6:52 AM ACDT 7:54 PM ACDT
Nautical Twilight 6:23 AM ACDT 8:23 PM ACDT
Astronomical Twilight 5:53 AM ACDT 8:53 PM ACDT
Moon 1:55 PM ACDT (3/19) 12:15 AM ACDT (3/20)
Length of Visible Light 13h 01m
Length of Day
12h 10m
Waxing Crescent, 44% of the Moon is Illuminated
Mar 19
Waxing Crescent
Mar 20
First Quarter
Mar 27
Full
Apr 3
Last Quarter
Apr 10
New

Hourly Weather History & Observations

Time (ACDT) Temp. Dew Point Humidity Pressure Visibility Wind Dir Wind Speed Gust Speed Precip Events Conditions
12:00 AM 62 °F 53 °F 64% 30.19 in 19 mi ESE 11.5 mph - -   Partly Cloudy
12:00 AM 60.8 °F 53.6 °F 77% 30.18 in - ESE 11.5 mph - N/A   Clear
12:30 AM 60.8 °F 53.6 °F 77% 30.18 in - East 6.9 mph - N/A   Clear
1:00 AM 60.8 °F 53.6 °F 77% 30.15 in - East 8.1 mph - N/A   Clear
1:30 AM 60 °F 53 °F 69% 30.17 in - ESE 8.1 mph - -  
1:30 AM 59.0 °F 51.8 °F 77% 30.15 in - ESE 8.1 mph - N/A   Clear
2:00 AM 59.0 °F 51.8 °F 77% 30.15 in - ESE 8.1 mph - N/A   Clear
2:30 AM 60.8 °F 51.8 °F 72% 30.15 in - ESE 4.6 mph - N/A   Clear
3:00 AM 58 °F 51 °F 70% 30.15 in 19 mi ESE 6.9 mph - -   Partly Cloudy
3:00 AM 57.2 °F 51.8 °F 82% 30.15 in - ESE 6.9 mph - N/A   Clear
3:30 AM 57.2 °F 50.0 °F 77% 30.12 in - ESE 8.1 mph - N/A   Clear
4:00 AM 57.2 °F 48.2 °F 72% 30.12 in - East 9.2 mph - N/A   Clear
4:30 AM 59 °F 47 °F 55% 30.14 in - East 10.4 mph - -  
4:30 AM 59.0 °F 46.4 °F 63% 30.12 in - East 10.4 mph - N/A   Clear
5:00 AM 62.6 °F 44.6 °F 52% 30.12 in - ENE 12.7 mph - N/A   Clear
5:30 AM 64.4 °F 44.6 °F 49% 30.12 in - ENE 13.8 mph - N/A   Clear
6:00 AM 63 °F 44 °F 39% 30.14 in 19 mi ENE 10.4 mph - -   Partly Cloudy
6:00 AM 62.6 °F 44.6 °F 52% 30.12 in - ENE 10.4 mph - N/A   Clear
6:30 AM 62.6 °F 44.6 °F 52% 30.12 in - ENE 10.4 mph - N/A   Clear
7:00 AM 62.6 °F 42.8 °F 48% 30.12 in - ENE 11.5 mph - N/A   Clear
7:30 AM 63 °F 44 °F 38% 30.16 in - ENE 10.4 mph - -  
7:30 AM 62.6 °F 44.6 °F 52% 30.15 in - ENE 10.4 mph - N/A   Clear
8:00 AM 64.4 °F 44.6 °F 49% 30.15 in - ENE 12.7 mph - N/A   Clear
8:30 AM 66.2 °F 44.6 °F 46% 30.15 in - ENE 12.7 mph - N/A   Clear
9:00 AM 69 °F 44 °F 30% 30.18 in 25 mi NE 15.0 mph - -   Partly Cloudy
9:00 AM 69.8 °F 44.6 °F 40% 30.15 in - NE 15.0 mph - N/A   Clear
9:30 AM 69.8 °F 44.6 °F 40% 30.15 in - NNE 17.3 mph - N/A   Clear
10:00 AM 69.8 °F 44.6 °F 40% 30.15 in - NE 16.1 mph - N/A   Clear
10:30 AM 73 °F 45 °F 25% 30.17 in - NE 15.0 mph - -  
10:30 AM 73.4 °F 44.6 °F 36% 30.15 in - NE 15.0 mph - N/A   Clear
11:00 AM 75.2 °F 44.6 °F 34% 30.15 in - NE 12.7 mph - N/A   Clear
11:30 AM 75.2 °F 41.0 °F 29% 30.15 in - North 13.8 mph - N/A   Clear
12:00 PM 76 °F 39 °F 16% 30.16 in 25 mi NE 9.2 mph - -   Partly Cloudy
12:00 PM 77.0 °F 39.2 °F 26% 30.15 in - NE 9.2 mph - N/A   Clear
12:30 PM 78.8 °F 39.2 °F 24% 30.15 in - NNE 8.1 mph - N/A   Clear
1:00 PM 78.8 °F 39.2 °F 24% 30.12 in - NNW 6.9 mph - N/A   Clear
1:30 PM 79 °F 38 °F 14% 30.13 in - North 8.1 mph - -  
1:30 PM 78.8 °F 39.2 °F 24% 30.12 in - North 8.1 mph - N/A   Clear
2:00 PM 78.8 °F 39.2 °F 24% 30.09 in - North 12.7 mph - N/A   Clear
2:30 PM 80.6 °F 30.2 °F 16% 30.09 in - North 11.5 mph - N/A   Clear
3:00 PM 80 °F 34 °F 11% 30.09 in 25 mi North 12.7 mph - -   Partly Cloudy
3:00 PM 80.6 °F 33.8 °F 18% 30.06 in - North 12.7 mph - N/A   Clear
3:30 PM 80.6 °F 35.6 °F 20% 30.06 in - North 9.2 mph - N/A   Clear
4:00 PM 80.6 °F 28.4 °F 15% 30.06 in - North 10.4 mph - N/A   Clear
4:30 PM 77 °F 43 °F 19% 30.07 in - SW 16.1 mph - -  
4:30 PM 77.0 °F 42.8 °F 29% 30.06 in - SW 16.1 mph - N/A   Clear
5:00 PM 75.2 °F 42.8 °F 31% 30.06 in 6.2 mi SSW 16.1 mph - N/A   Partly Cloudy
5:30 PM 75.2 °F 44.6 °F 34% 30.06 in - SSW 16.1 mph - N/A   Clear
6:00 PM 76 °F 38 °F 15% 30.08 in 25 mi SSW 11.5 mph - -   Partly Cloudy
6:00 PM 75.2 °F 37.4 °F 25% 30.06 in - SSW 11.5 mph - N/A   Clear
6:30 PM 75.2 °F 42.8 °F 31% 30.06 in - SSW 9.2 mph - N/A   Clear
7:00 PM 75.2 °F 44.6 °F 34% 30.06 in - SSW 8.1 mph - N/A   Clear
7:30 PM 72 °F 47 °F 30% 30.08 in - South 5.8 mph - -  
7:30 PM 71.6 °F 46.4 °F 41% 30.06 in - South 5.8 mph - N/A   Clear
8:00 PM 73.4 °F 41.0 °F 31% 30.06 in - South 5.8 mph - N/A   Clear
8:30 PM 69.8 °F 39.2 °F 33% 30.06 in - SE 8.1 mph - N/A   Clear
9:00 PM 69 °F 39 °F 22% 30.10 in 25 mi SE 6.9 mph - -   Partly Cloudy
9:00 PM 69.8 °F 39.2 °F 33% 30.09 in - SE 6.9 mph - N/A   Clear
9:30 PM 69.8 °F 41.0 °F 35% 30.09 in - ESE 8.1 mph - N/A   Clear
10:00 PM 68.0 °F 42.8 °F 40% 30.09 in - ESE 9.2 mph - N/A   Clear
10:30 PM 66 °F 43 °F 31% 30.11 in - East 6.9 mph - -  
10:30 PM 66.2 °F 42.8 °F 43% 30.09 in - East 6.9 mph - N/A   Clear
11:00 PM 66.2 °F 42.8 °F 43% 30.09 in - East 5.8 mph - N/A   Clear
11:30 PM 66.2 °F 42.8 °F 43% 30.06 in - ENE 4.6 mph - N/A   Clear